User: anonymous   Login
Location: Unspecified
(0.0000°N, 0.0000°E)
Time: 23:16:40
(UTC+00:00)
Language:

AISAT - Orbit

View from above orbital plane
View from above orbital plane
View from above satellite
View from above satellite

Ground track
Ground track

The orbit data is extracted from the following two-line orbital elements,

1 40054U 14034B   23083.49858407  .00015547  00000-0  19477-2 0  9998
2 40054  98.3686 271.7577 0012201 136.7998 223.4173 14.82274190470911
Epoch (UTC): 24 March 2023 11:57:57
Eccentricity: 0.0012201
inclination: 98.3686°
perigee height: 613 km
apogee height: 631 km
right ascension of ascending node: 271.7577°
argument of perigee: 136.7998°
revolutions per day: 14.82274190
mean anomaly at epoch: 223.4173°
orbit number at epoch: 47091

The dashed part of the orbit path shows where the satellite is in the earth's shadow,  

DLR